CW9832 Weather Reports


Display with metric or nautical units.
time (UTC)temp
F
wind
direction
speed
MPH
gust
MPH
rain 1hr
in
rain 24hr
in
rain mn
in
humidity
%
barometer
mb
20260510061533 64 217 0.0 0.0 0.00 0.00 0.00 92 1012.3
20260510060537 64 218 0.0 0.0 0.00 0.00 0.00 92 1012.4
20260510055540 64 218 0.0 0.0 0.00 0.00 0.00 92 1012.4
20260510054507 64 218 0.0 0.0 0.00 0.00 0.00 92 1012.3
20260510052409 64 218 0.0 0.0 0.00 0.00 0.00 92 1012.3
20260510051408 64 218 0.0 0.0 0.00 0.00 0.00 92 1012.4
20260510044109 65 218 0.0 0.0 0.00 0.00 0.00 91 1012.8
20260510043120 65 218 0.0 0.0 0.00 0.00 0.00 91 1012.7
20260510042140 65 218 0.0 0.0 0.00 0.00 0.00 91 1012.6
20260510041152 65 218 0.0 0.0 0.00 0.00 0.00 91 1012.7
20260510040157 65 218 0.0 0.0 0.00 0.00 0.00 91 1012.6
20260510034013 65 218 0.0 0.0 0.00 0.00 0.00 91 1012.6
20260510033030 65 218 0.0 0.0 0.00 0.00 0.00 91 1012.4
20260510032051 66 218 0.0 0.0 0.00 0.00 0.00 91 1012.3
20260510031116 66 218 0.0 0.0 0.00 0.00 0.00 91 1012.3
20260510024915 66 218 0.0 0.0 0.00 0.00 0.00 91 1012.3
20260510023858 66 218 0.0 0.0 0.00 0.00 0.00 90 1012.3
20260510020612 66 218 0.0 0.0 0.00 0.00 0.00 89 1012.3
20260510014520 67 218 0.0 0.0 0.00 0.00 0.00 88 1012.1
20260510013516 67 218 0.0 0.0 0.00 0.00 0.00 88 1012.0
20260510012453 68 218 0.0 0.0 0.00 0.00 0.00 87 1011.9
20260510011432 68 218 0.0 0.0 0.00 0.00 0.00 87 1011.7
20260510010450 68 218 0.0 0.0 0.00 0.00 0.00 86 1011.6
20260510005428 69 218 0.0 0.0 0.00 0.00 0.00 86 1011.7
20260510004425 69 217 0.0 0.0 0.00 0.00 0.00 84 1011.4
20260510002249 70 217 0.0 0.0 0.00 0.00 0.00 82 1011.0
20260510001310 70 217 0.0 0.0 0.00 0.00 0.00 82 1010.8
20260510000318 71 217 0.0 0.0 0.00 0.00 0.00 81 1010.7
20260509234132 72 217 0.0 0.0 0.00 0.00 0.00 80 1010.5
20260509233153 72 218 0.0 0.0 0.00 0.00 0.00 80 1010.4
20260509232141 72 235 0.0 0.0 0.00 0.00 0.00 79 1010.4
20260509231120 73 235 0.0 4.0 0.00 0.00 0.00 78 1010.4
20260509225111 73 227 0.0 6.0 0.00 0.00 0.00 77 1010.2
20260509224124 74 215 0.0 5.0 0.00 0.00 0.00 77 1010.3
20260509223054 74 231 0.0 3.0 0.00 0.00 0.00 77 1010.2
20260509220940 75 230 0.0 3.0 0.00 0.00 0.00 77 1010.0
20260509215941 75 206 0.0 0.0 0.00 0.00 0.00 77 1010.1
20260509215004 75 194 1.0 10.0 0.00 0.00 0.00 77 1010.0
20260509212831 75 200 1.0 11.0 0.00 0.00 0.00 76 1009.8
20260509211840 75 209 1.0 7.0 0.00 0.00 0.00 75 1010.0
20260509210812 76 184 1.0 4.0 0.00 0.00 0.00 75 1009.9
20260509205741 76 200 1.0 11.0 0.00 0.00 0.00 74 1010.1
20260509204736 77 221 0.0 3.0 0.00 0.00 0.00 73 1010.1
20260509203755 77 264 0.0 9.0 0.00 0.00 0.00 72 1010.2
20260509201628 76 230 0.0 4.0 0.00 0.00 0.00 73 1010.6
20260509200605 75 259 0.0 3.0 0.00 0.00 0.00 75 1010.6
20260509195557 75 217 0.0 4.0 0.00 0.00 0.00 75 1010.7
20260509194545 75 259 2.0 9.0 0.00 0.00 0.00 75 1010.8
20260509192409 74 237 0.0 0.0 0.00 0.00 0.00 76 1011.1
20260509191358 74 240 0.0 5.0 0.00 0.00 0.00 76 1011.1
20260509190417 74 252 0.0 6.0 0.00 0.00 0.00 77 1011.3
20260509185402 73 239 0.0 5.0 0.00 0.00 0.00 77 1011.6
20260509183332 73 194 0.0 5.0 0.00 0.00 0.00 77 1011.7
20260509181156 73 274 1.0 3.0 0.00 0.00 0.00 77 1011.3
20260509175006 71 263 0.0 5.0 0.00 0.00 0.00 79 1011.6
20260509170606 72 217 0.0 0.0 0.00 0.00 0.00 79 1011.4
20260509165602 72 204 1.0 6.0 0.00 0.00 0.00 79 1011.3
20260509164547 72 267 1.0 8.0 0.00 0.00 0.00 79 1011.4
20260509163532 72 267 0.0 7.0 0.00 0.00 0.00 79 1011.5
20260509162545 71 249 0.0 0.0 0.00 0.00 0.00 80 1011.5
20260509161516 71 207 0.0 3.0 0.00 0.00 0.00 82 1011.8
20260509155352 71 196 0.0 7.0 0.00 0.00 0.00 83 1011.9
20260509154348 70 211 0.0 0.0 0.00 0.00 0.00 82 1011.9
20260509153358 70 230 0.0 0.0 0.00 0.00 0.00 83 1011.6
20260509152326 70 234 0.0 2.0 0.00 0.00 0.00 83 1011.6
20260509151336 70 271 0.0 5.0 0.00 0.00 0.00 84 1011.6
20260509150308 69 182 0.0 0.0 0.00 0.00 0.00 84 1011.7
20260509145315 69 185 0.0 0.0 0.00 0.00 0.00 86 1012.2
20260509144305 68 180 1.0 8.0 0.00 0.00 0.00 86 1012.1
20260509143304 68 211 1.0 7.0 0.00 0.00 0.00 87 1012.1
20260509142258 67 229 0.0 3.0 0.00 0.00 0.00 88 1012.4
20260509141249 67 202 0.0 0.0 0.00 0.00 0.00 89 1012.3
20260509135038 66 200 0.0 3.0 0.00 0.00 0.00 90 1012.5
20260509134043 66 195 0.0 0.0 0.00 0.00 0.00 91 1012.5
20260509133039 66 194 0.0 0.0 0.00 0.00 0.00 91 1012.4
20260509132018 66 180 0.0 0.0 0.00 0.00 0.00 92 1012.4
20260509130949 65 186 0.0 4.0 0.00 0.00 0.00 93 1011.9
20260509125936 64 152 0.0 9.0 0.00 0.00 0.00 93 1011.9
20260509124948 64 171 0.0 4.0 0.00 0.00 0.00 93 1012.1
20260509123958 63 168 0.0 0.0 0.00 0.00 0.00 93 1012.3
20260509123012 63 167 0.0 0.0 0.00 0.00 0.00 93 1012.2
20260509122015 63 144 0.0 3.0 0.00 0.00 0.00 93 1012.5
20260509121013 62 144 0.0 0.0 0.00 0.00 0.00 93 1012.4
20260509120008 62 143 0.0 0.0 0.00 0.00 0.00 93 1012.4
20260509114945 62 143 0.0 0.0 0.00 0.00 0.00 93 1012.3
20260509112758 61 144 0.0 0.0 0.00 0.00 0.00 93 1012.4
20260509111811 61 144 0.0 0.0 0.00 0.00 0.00 93 1012.4
20260509105658 61 144 0.0 0.0 0.00 0.00 0.00 92 1012.0
20260509104713 61 144 0.0 0.0 0.00 0.00 0.00 92 1011.9
20260509103645 60 144 0.0 0.0 0.00 0.00 0.00 92 1012.2
20260509102642 60 144 0.0 0.0 0.00 0.00 0.00 92 1012.0
20260509101643 60 144 0.0 0.0 0.00 0.00 0.00 92 1011.7
20260509100636 60 143 0.0 0.0 0.00 0.00 0.00 92 1011.6
20260509095642 59 143 0.0 0.0 0.00 0.00 0.00 92 1011.5
20260509094648 59 143 0.0 0.0 0.00 0.00 0.00 92 1011.4
20260509093622 59 143 0.0 0.0 0.00 0.00 0.00 92 1011.1
20260509091514 59 143 0.0 0.0 0.00 0.00 0.00 91 1011.1
20260509085400 59 143 0.0 0.0 0.00 0.00 0.00 91 1011.1
20260509084333 60 143 0.0 0.0 0.00 0.00 0.00 91 1011.2
20260509083259 60 143 0.0 0.0 0.00 0.00 0.00 91 1011.3
20260509082307 60 143 0.0 0.0 0.00 0.00 0.00 91 1011.3
20260509081319 60 143 0.0 0.0 0.00 0.00 0.00 91 1011.4
20260509080257 60 143 0.0 0.0 0.00 0.00 0.00 91 1011.3
20260509075314 60 143 0.0 0.0 0.00 0.00 0.00 90 1011.4
20260509074318 60 143 0.0 0.0 0.00 0.00 0.00 90 1011.3
20260509073335 60 143 0.0 0.0 0.00 0.00 0.00 90 1011.3
20260509072339 61 143 0.0 0.0 0.00 0.00 0.00 90 1011.4
20260509071328 61 143 0.0 0.0 0.00 0.00 0.00 90 1011.8
20260509070348 61 143 0.0 0.0 0.00 0.00 0.00 90 1011.8
20260509065352 61 143 0.0 0.0 0.00 0.00 0.00 90 1011.9
20260509064413 62 143 0.0 0.0 0.00 0.00 0.00 89 1011.8
20260509063349 62 143 0.0 0.0 0.00 0.00 0.00 89 1012.0
20260509062413 62 143 0.0 0.0 0.00 0.00 0.00 89 1012.1